Flag for United Arab Emirates Weather past 2 weeks in Sharjah, Sharjah, United Arab Emirates

Now
75 °F

Passing clouds.


Feels Like: 78 °F
Forecast: 71 / 75 °F
Wind: 7 mph from West

Location: Sharjah International Airport

Current Time: Dec 22, 2014 at 1:42:56 PM

Latest Report: Dec 22, 2014 at 1:00 PM


Visibility: N/A

Pressure: 29.98 "Hg

Humidity: 50%

Dew point: 55 °F

Location of SharjahLocation

Historic Weather in Sharjah — Graph

°F

Sharjah temperature yesterday

Maximum temperature yesterday: 77 °F (at 3:00 PM)
Minimum temperature yesterday: 61 °F (at 5:00 AM)
Average temperature yesterday: 68 °F

Past Weeks' High & Low Weather Summary

 TemperatureHumidityPressure
High86 °F (Dec 8, 12:00 PM)94% (Dec 12, 6:00 AM)30.21 "Hg (Dec 12, 6:00 AM)
Low55 °F (Dec 15, 8:00 AM)13% (Dec 10, 1:00 PM)29.95 "Hg (Dec 21, 3:00 PM)
Average70 °F55%30.09 "Hg
* Reported Dec 7 12:00 Noon — Dec 22 12:00 Noon, Sharjah, Weather by CustomWeather, © 2014

Note: Actual official high and low records may vary slightly from our data, if they occured in-between our weather recording intervals... More about our weather records

Advertising

Sharjah weather history for previous 24 hours

 ConditionsComfort  
Time TempWeatherWind HumidityBarometerVisibility
12:00 PM
Dec 22
73 °FPassing clouds.6 mph53%29.98 "HgN/A
11:00 AM72 °FPassing clouds.8 mph57%30.01 "HgN/A
10:00 AM68 °FPassing clouds.8 mph60%30.04 "HgN/A
9:00 AM63 °FSunny.7 mph64%30.01 "Hg10 mi
8:00 AM59 °FClear.5 mph72%30.01 "Hg4 mi
7:00 AM59 °FClear.5 mph72%29.98 "Hg4 mi
6:00 AM57 °FClear.7 mph77%29.95 "Hg4 mi
5:00 AM59 °FClear.5 mph72%29.95 "Hg4 mi
4:00 AM57 °FClear.5 mph77%29.98 "Hg4 mi
3:00 AM59 °FClear.6 mph77%29.98 "Hg4 mi
2:00 AM59 °FClear.3 mph77%29.98 "Hg10 mi
1:00 AM61 °FClear.2 mph77%29.98 "Hg10 mi
12:00 AM63 °FClear.5 mph73%29.98 "Hg10 mi
11:00 PM
Dec 21
63 °FClear.5 mph73%30.01 "Hg10 mi
10:00 PM64 °FClear.2 mph73%30.01 "Hg10 mi
9:00 PM68 °FClear.No wind64%30.01 "Hg10 mi
8:00 PM70 °FClear.6 mph60%30.01 "Hg10 mi
7:00 PM70 °FClear.6 mph60%29.98 "Hg10 mi
6:00 PM72 °FClear.9 mph53%29.95 "Hg10 mi
5:00 PM73 °FPassing clouds.10 mph50%29.95 "HgN/A
4:00 PM75 °FPassing clouds.7 mph47%29.95 "HgN/A
3:00 PM77 °FPassing clouds.7 mph44%29.95 "HgN/A
2:00 PM75 °FPassing clouds.6 mph47%29.98 "HgN/A
1:00 PM75 °FPassing clouds.7 mph47%30.01 "HgN/A
Weather by CustomWeather, © 2014

See weather overviewHow to use our weather pages